Location: Brantley
(31.5822°N, 86.2569°W)
Time: 02:50:35
(UTC+00:00)

Transit 2A Rocket - Pass Details

Date: 25 February 2026
Orbit: 583 x 900 km, 66.7° (Epoch: 8 March)

Event Time Altitude Azimuth Distance (km) Brightness Sun altitude
Rises 20:00:59 0° 224° (SW) 3,456 9.3 40.0°
Reaches altitude 10° 20:03:35 10° 232° (SW) 2,544 8.9 39.6°
Maximum altitude 20:09:09 40° 300° (WNW) 1,296 6.7 38.8°
Drops below altitude 10° 20:14:47 10° 10° (N) 2,564 7.4 38.0°
Sets 20:17:26 0° 17° (NNE) 3,486 8.0 37.6°
